Regional Weather Roundup
Issued by NWS Green Bay, WI

Home | Current Version | Previous Version | Graphics & Text | Print | Product List | Glossary Off
Versions: 1 2 3 4 5 6 7 8 9 10 11 12 13 14 15 16 17 18 19 20 21 22 23 24 25 26 27 28 29 30 31 32 33 34 35 36 37 38 39 40 41 42 43 44 45 46 47 48 49 50

000
ASUS43 KGRB 290111
RWRGRB

NORTH-CENTRAL AND NORTHEAST WISCONSIN REGIONAL WEATHER ROUNDUP
NATIONAL WEATHER SERVICE GREEN BAY WI
800 PM CDT FRI AUG 28 2015

WIZ005-009-010>012-018-019-290200-
NORTH CENTRAL WISCONSIN

CITY           SKY/WX    TMP DP  RH WIND       PRES   REMARKS
IRONWOOD       PTCLDY    70  63  78 S9        29.97R
MANITOWISH WTR PTCLDY    63  61  93 SW6       30.05R
ARBOR VITAE    MOCLDY    64  61  89 SW5       30.06R
EAGLE RIVER    MOCLDY    64  58  81 SW5       30.05R
LAND O LAKES   MOCLDY    66  60  80 SW5       30.06R
RHINELANDER    MOCLDY    65  61  87 SW5       30.07R
PHILLIPS       MOCLDY    64  62  91 CALM      30.05R
ANTIGO         CLOUDY    61  60  97 S6        30.09R
TOMAHAWK       CLOUDY    64  60  87 CALM      30.06S
MERRILL        CLOUDY    63  62  98 S3        30.07R
$$

WIZ013-073-290200-
NORTHEAST WISCONSIN

CITY           SKY/WX    TMP DP  RH WIND       PRES   REMARKS
IRON MOUNTAIN  CLOUDY    69  62  78 SW7       30.03R
MARINETTE      CLOUDY    64  57  77 SW5       30.04S
OCONTO         CLOUDY    63  63 100 CALM      30.05S
$$

WIZ017-030-035>037-045-290200-
CENTRAL WISCONSIN

CITY           SKY/WX    TMP DP  RH WIND       PRES   REMARKS
MEDFORD        CLOUDY    62  60  94 S10       30.07R
WAUSAU         CLOUDY    63  60  90 SW3       30.07R
MOSINEE        NOT AVBL
MARSHFIELD     CLOUDY    61  56  83 S16       30.08R
WISC RAPIDS    LGT RAIN  61  57  87 SW14G20   30.11R
STEVENS POINT  LGT RAIN  59  57  94 S9G17     30.10R
WAUPACA        RAIN      62  61  97 SW5       30.10R
SHAWANO        CLOUDY    65  62  91 SW3       30.07R
CLINTONVILLE   RAIN      63  61  94 S6        30.06R
WAUTOMA        LGT RAIN  61  61 100 CALM      30.11R FOG
$$

WIZ038-039-048-051-290200-
FOX VALLEY

CITY           SKY/WX    TMP DP  RH WIND       PRES   REMARKS
NWS GREEN BAY  LGT RAIN  63  62  97 CALM      30.07R FOG
APPLETON       DRIZZLE   63  63 100 VRB5      30.06R
OSHKOSH        LGT RAIN  64  61  90 S9        30.08R
FOND DU LAC    RAIN      63  59  87 SE8       30.09R
$$

WIZ022-050-052-290200-
EAST CENTRAL WISCONSIN

CITY           SKY/WX    TMP DP  RH WIND       PRES   REMARKS
EPHRAIM        MOCLDY    64  61  90 SW5       30.05S
STURGEON BAY   CLOUDY    64  61  88 SW3       30.09R
MANITOWOC      LGT RAIN  60  59  96 MISG      30.08F FOG
SHEBOYGAN      LGT RAIN  65  63  93 S6        30.10R FOG
$$

LMZ563-521-522-541>543-290200-
LAKESHORE

STATION/POSITION TIME  TEMP    WIND        PRES    VSBY  WAVE
                       AIR SEA DIR/SP/G                  HT/PER
                 (UTC) (F)     (DEG/KT/KT) (MB)    (MI)  (FT/S)
SHEBOYGAN LKSHOR 0100   61     200/  8/  8 1019.6R
ALGOMA MARINA    0014          230/  6/  7   N/A
NORTHPORT PIER   0000   65     160/  4/  7 1017.3S
N MID LAKE BUOY  0050   63 64  210/ 19/ 23 1016.7F         3/ 4
S GREEN BAY BUOY 0100   64 62  200/  8/ 10 1019.1R
CHAMBERS ISLAND  0000   65     190/  7/ 13 1017.3S
$$



USA.gov is the U.S. government's official web portal to all federal, state and local government web resources and services.